Regional Weather Roundup
Issued by NWS

Home | Current Version | Previous Version | Graphics & Text | Print | Product List | Glossary On
Versions: 1 2 3 4 5 6 7 8 9 10 11 12 13 14 15 16 17 18 19 20 21 22 23 24 25 26 27 28 29 30 31 32 33 34 35 36 37 38 39 40 41 42 43 44 45 46 47 48 49 50
000
ASUS43 KLSX 131259
RWRMO

WEATHER SUMMARY FOR MISSOURI
NATIONAL WEATHER SERVICE SPRINGFIELD MO
800 AM CDT SUN JUL 13 2014

NOTE: "FAIR" INDICATES FEW OR NO CLOUDS BELOW 12,000 FEET WITH NO
       SIGNIFICANT WEATHER AND/OR OBSTRUCTIONS TO VISIBILITY.
       CURRENT SKY AND/OR WEATHER CONDITIONS ARE NOT AVAILABLE FOR
       CHILLICOTHE AND FARMINGTON.

MOZ001>031-035>038-043-044-053-054-131400-
...NORTHERN AND WESTERN MISSOURI...

CITY           SKY/WX    TMP DP  RH WIND       PRES   REMARKS
KANSAS CTY INT LGT RAIN  71  69  93 SE3       30.01F
KANSAS C DTWN  LGT RAIN  73  69  87 SW6       30.00F
LEE`S SUMMIT   LGT RAIN  74  68  81 CALM      30.04F
ST JOSEPH      CLOUDY    73  71  93 CALM      30.02S
CHILLICOTHE      N/A     72  69  90 CALM      30.03R
KIRKSVILLE     CLOUDY    72  70  93 S3        30.03R

$$
MOZ066>068-077>081-088>096-101>105-131400-
...SOUTHWEST MISSOURI...

CITY           SKY/WX    TMP DP  RH WIND       PRES   REMARKS
SPRINGFIELD    CLOUDY    77  66  68 W6        30.06R
JOPLIN         SUNNY     80  65  59 SW10      30.05S

$$
MOZ032>034-039>042-045>050-055>058-069>072-131400-
...CENTRAL MISSOURI...

CITY           SKY/WX    TMP DP  RH WIND       PRES   REMARKS
COLUMBIA       CLOUDY    76  68  76 NW9       30.03R
JEFFERSON CITY CLOUDY    78  67  68 NW7       30.02R
ROLLA          PTSUNNY   77  67  71 VRB7      30.04F
SEDALIA        PTSUNNY   78  71  79 NW3       30.03F
OSAGE BEACH    PTSUNNY   75  68  78 S7        30.05F

$$
MOZ051-052-059>065-131400-
...EAST CENTRAL MISSOURI...

CITY           SKY/WX    TMP DP  RH WIND       PRES   REMARKS
ST LOUIS INTL  PTSUNNY   83  70  64 CALM      30.01F
SPIRIT OF STL  PTSUNNY   80  71  74 SW5       30.00S
ST CHARLES     PTSUNNY   79  72  79 CALM      29.99S

$$
MOZ072>076-082>087-097>100-106>115-131400-
...SOUTH CENTRAL AND SOUTHEAST MISSOURI...

CITY           SKY/WX    TMP DP  RH WIND       PRES   REMARKS
CAPE GIRARDEAU SUNNY     80  74  81 SW7       30.03S
FARMINGTON     PTSUNNY   79  70  73 CALM      30.07R
POPLAR BLUFF   PTSUNNY   77  72  84 SW7       30.04R
WEST PLAINS    CLOUDY    75  70  84 SW5       30.09S

$$



USA.gov is the U.S. government's official web portal to all federal, state and local government web resources and services.